Time,TemperatureF,DewpointF,PressureIn,WindDirection,WindDirectionDegrees,WindSpeedMPH,WindSpeedGustMPH,Humidity,HourlyPrecipIn,Conditions,Clouds,dailyrainin,SoftwareType,DateUTC
2013-02-09 00:03:00,49.3,19.2,27.23,West,270,3.6,3.6,30,0.00,,---,0.00,VWS V14.01,2013-02-09 07:03:00,
2013-02-09 00:08:00,49.1,19.0,27.23,WNW,292,0.0,0.0,30,0.00,,---,0.00,VWS V14.01,2013-02-09 07:08:00,
2013-02-09 00:13:00,49.3,19.9,27.26,WNW,292,4.0,4.0,31,0.00,,---,0.00,VWS V14.01,2013-02-09 07:13:00,
2013-02-09 00:18:00,48.9,19.6,27.26,WSW,248,0.0,0.0,31,0.00,,---,0.00,VWS V14.01,2013-02-09 07:18:00,
2013-02-09 00:23:00,48.7,19.5,27.26,WSW,248,4.0,4.0,31,0.00,,---,0.00,VWS V14.01,2013-02-09 07:23:00,
2013-02-09 00:28:00,48.6,19.3,27.23,WNW,292,2.2,2.2,31,0.00,,---,0.00,VWS V14.01,2013-02-09 07:28:00,
2013-02-09 00:33:00,48.4,19.9,27.23,West,270,0.0,0.0,32,0.00,,---,0.00,VWS V14.01,2013-02-09 07:33:00,
2013-02-09 00:38:00,48.4,20.6,27.23,West,270,2.2,2.2,33,0.00,,---,0.00,VWS V14.01,2013-02-09 07:38:00,
2013-02-09 00:43:00,48.4,20.6,27.23,West,270,2.7,3.1,33,0.00,,---,0.00,VWS V14.01,2013-02-09 07:43:00,
2013-02-09 00:48:00,48.4,20.6,27.23,West,270,0.0,2.2,33,0.00,,---,0.00,VWS V14.01,2013-02-09 07:48:00,
2013-02-09 00:53:00,48.4,20.6,27.23,SW,225,0.0,0.0,33,0.00,,---,0.00,VWS V14.01,2013-02-09 07:53:00,
2013-02-09 00:58:00,48.4,21.3,27.23,West,270,0.0,0.0,34,0.00,,---,0.00,VWS V14.01,2013-02-09 07:58:00,
2013-02-09 01:03:00,48.6,21.5,27.23,WSW,248,2.7,2.7,34,0.00,,---,0.00,VWS V14.01,2013-02-09 08:03:00,
2013-02-09 01:09:00,49.1,22.0,27.23,West,270,5.8,5.8,34,0.00,,---,0.00,VWS V14.01,2013-02-09 08:09:00,
2013-02-09 01:14:00,49.6,22.4,27.23,West,270,2.7,3.1,34,0.00,,---,0.00,VWS V14.01,2013-02-09 08:14:00,
2013-02-09 01:19:00,49.8,21.9,27.23,WNW,292,0.0,2.7,33,0.00,,---,0.00,VWS V14.01,2013-02-09 08:19:00,
2013-02-09 01:24:00,49.6,21.7,27.23,West,270,3.1,4.0,33,0.00,,---,0.00,VWS V14.01,2013-02-09 08:24:00,
2013-02-09 01:29:00,49.8,21.9,27.23,WNW,292,2.7,2.7,33,0.00,,---,0.00,VWS V14.01,2013-02-09 08:29:00,
2013-02-09 01:34:00,49.5,21.6,27.23,NW,315,0.0,0.0,33,0.00,,---,0.00,VWS V14.01,2013-02-09 08:34:00,
2013-02-09 01:39:00,49.5,22.3,27.23,SSW,202,3.1,3.1,34,0.00,,---,0.00,VWS V14.01,2013-02-09 08:39:00,
2013-02-09 01:44:00,49.3,22.1,27.23,West,270,0.0,5.4,34,0.00,,---,0.00,VWS V14.01,2013-02-09 08:44:00,
2013-02-09 01:49:00,49.1,22.6,27.23,WSW,248,3.6,4.0,35,0.00,,---,0.00,VWS V14.01,2013-02-09 08:49:00,
2013-02-09 01:54:00,48.9,22.5,27.23,West,270,0.0,0.0,35,0.00,,---,0.00,VWS V14.01,2013-02-09 08:54:00,
2013-02-09 01:59:00,48.7,22.3,27.26,WSW,248,0.0,2.7,35,0.00,,---,0.00,VWS V14.01,2013-02-09 08:59:00,
2013-02-09 02:04:00,48.7,23.0,27.26,WSW,248,0.0,4.0,36,0.00,,---,0.00,VWS V14.01,2013-02-09 09:04:00,
2013-02-09 02:09:00,48.4,22.7,27.26,West,270,2.2,3.1,36,0.00,,---,0.00,VWS V14.01,2013-02-09 09:09:00,
2013-02-09 02:14:00,48.2,23.2,27.23,West,270,0.0,2.7,37,0.00,,---,0.00,VWS V14.01,2013-02-09 09:14:00,
2013-02-09 02:19:00,48.0,23.0,27.23,West,270,2.2,2.2,37,0.00,,---,0.00,VWS V14.01,2013-02-09 09:19:00,
2013-02-09 02:25:00,47.8,22.9,27.23,WSW,248,0.0,0.0,37,0.00,,---,0.00,VWS V14.01,2013-02-09 09:25:00,
2013-02-09 02:30:00,47.7,22.7,27.23,WSW,248,2.7,2.7,37,0.00,,---,0.00,VWS V14.01,2013-02-09 09:30:00,
2013-02-09 02:35:00,47.5,22.5,27.23,WSW,248,0.0,0.0,37,0.00,,---,0.00,VWS V14.01,2013-02-09 09:35:00,
2013-02-09 02:40:00,47.5,23.2,27.23,WSW,248,0.0,0.0,38,0.00,,---,0.00,VWS V14.01,2013-02-09 09:40:00,
2013-02-09 02:45:00,47.3,23.0,27.23,WSW,248,0.0,0.0,38,0.00,,---,0.00,VWS V14.01,2013-02-09 09:45:00,
2013-02-09 02:50:00,47.3,23.0,27.23,SW,225,0.0,0.0,38,0.00,,---,0.00,VWS V14.01,2013-02-09 09:50:00,
2013-02-09 02:55:00,47.1,22.8,27.23,WSW,248,0.0,0.0,38,0.00,,---,0.00,VWS V14.01,2013-02-09 09:55:00,
2013-02-09 03:00:00,47.3,23.0,27.23,WSW,248,0.0,0.0,38,0.00,,---,0.00,VWS V14.01,2013-02-09 10:00:00,
2013-02-09 03:05:00,47.3,23.0,27.23,West,270,0.0,0.0,38,0.00,,---,0.00,VWS V14.01,2013-02-09 10:05:00,
2013-02-09 03:10:00,47.5,23.2,27.23,West,270,2.2,2.7,38,0.00,,---,0.00,VWS V14.01,2013-02-09 10:10:00,
2013-02-09 03:15:00,47.8,23.5,27.23,WNW,292,0.0,3.1,38,0.00,,---,0.00,VWS V14.01,2013-02-09 10:15:00,
2013-02-09 03:20:00,48.0,23.6,27.23,West,270,0.0,0.0,38,0.00,,---,0.00,VWS V14.01,2013-02-09 10:20:00,
2013-02-09 03:26:00,47.8,23.5,27.23,WSW,248,4.0,4.0,38,0.00,,---,0.00,VWS V14.01,2013-02-09 10:26:00,
2013-02-09 03:31:00,48.0,23.6,27.23,WSW,248,3.1,4.0,38,0.00,,---,0.00,VWS V14.01,2013-02-09 10:31:00,
2013-02-09 03:36:00,48.0,29.3,27.23,West,270,5.4,5.4,48,0.00,,---,0.00,VWS V14.01,2013-02-09 10:36:00,
2013-02-09 03:41:00,48.0,29.3,27.23,West,270,7.6,7.6,48,0.00,,---,0.00,VWS V14.01,2013-02-09 10:41:00,
2013-02-09 03:46:00,48.0,29.3,27.23,WSW,248,2.7,3.1,48,0.00,,---,0.00,VWS V14.01,2013-02-09 10:46:00,
2013-02-09 03:51:00,48.0,28.8,27.23,West,270,4.0,6.3,47,0.00,,---,0.00,VWS V14.01,2013-02-09 10:51:00,
2013-02-09 03:56:00,48.0,28.8,27.23,WSW,248,2.7,2.7,47,0.00,,---,0.00,VWS V14.01,2013-02-09 10:56:00,
2013-02-09 04:01:00,48.0,28.8,27.23,SW,225,2.7,3.6,47,0.00,,---,0.00,VWS V14.01,2013-02-09 11:01:00,
2013-02-09 04:06:00,48.2,28.4,27.23,SW,225,2.7,3.6,46,0.00,,---,0.00,VWS V14.01,2013-02-09 11:06:00,
2013-02-09 04:11:00,48.4,29.1,27.23,South,180,3.6,5.8,47,0.00,,---,0.00,VWS V14.01,2013-02-09 11:11:00,
2013-02-09 04:16:00,47.8,30.1,27.23,SSW,202,6.7,10.5,50,0.00,,---,0.00,VWS V14.01,2013-02-09 11:16:00,
2013-02-09 04:21:00,47.7,30.9,27.23,West,270,4.9,8.1,52,0.00,,---,0.00,VWS V14.01,2013-02-09 11:21:00,
2013-02-09 04:26:00,47.3,31.5,27.23,West,270,5.8,5.8,54,0.00,,---,0.00,VWS V14.01,2013-02-09 11:26:00,
2013-02-09 04:32:00,46.6,33.0,27.23,WNW,292,8.3,8.3,59,0.00,,---,0.00,VWS V14.01,2013-02-09 11:32:00,
2013-02-09 04:37:00,45.3,35.0,27.23,SW,225,5.4,5.4,67,0.00,,---,0.00,VWS V14.01,2013-02-09 11:37:00,
2013-02-09 04:42:00,44.6,34.7,27.23,NNW,338,4.0,4.0,68,0.00,,---,0.00,VWS V14.01,2013-02-09 11:42:00,
2013-02-09 04:47:00,44.4,35.3,27.23,SSW,202,2.7,4.9,70,0.00,,---,0.00,VWS V14.01,2013-02-09 11:47:00,
2013-02-09 04:52:00,44.4,35.6,27.23,WNW,292,0.0,0.0,71,0.00,,---,0.00,VWS V14.01,2013-02-09 11:52:00,
2013-02-09 04:57:00,44.2,35.8,27.23,WSW,248,3.1,3.1,72,0.00,,---,0.00,VWS V14.01,2013-02-09 11:57:00,
2013-02-09 05:02:00,44.6,35.8,27.23,West,270,0.0,0.0,71,0.00,,---,0.00,VWS V14.01,2013-02-09 12:02:00,
2013-02-09 05:07:00,44.8,35.6,27.23,WNW,292,3.1,4.0,70,0.00,,---,0.00,VWS V14.01,2013-02-09 12:07:00,
2013-02-09 05:12:00,45.1,35.6,27.23,WNW,292,4.0,4.9,69,0.00,,---,0.00,VWS V14.01,2013-02-09 12:12:00,
2013-02-09 05:17:00,45.3,35.4,27.23,NW,315,3.1,5.8,68,0.00,,---,0.00,VWS V14.01,2013-02-09 12:17:00,
2013-02-09 05:22:00,45.7,35.4,27.23,NNW,338,4.0,7.6,67,0.00,,---,0.00,VWS V14.01,2013-02-09 12:22:00,
2013-02-09 05:27:00,43.0,32.8,27.23,West,270,12.8,12.8,67,0.00,,---,0.00,VWS V14.01,2013-02-09 12:27:00,
2013-02-09 05:32:00,40.6,32.0,27.23,WNW,292,6.3,14.1,71,0.00,,---,0.00,VWS V14.01,2013-02-09 12:32:00,
2013-02-09 05:37:00,40.1,32.8,27.23,West,270,11.4,11.4,75,0.00,,---,0.00,VWS V14.01,2013-02-09 12:37:00,
2013-02-09 05:42:00,39.9,33.3,27.23,WNW,292,4.0,7.2,77,0.00,,---,0.00,VWS V14.01,2013-02-09 12:42:00,
2013-02-09 05:47:00,39.7,33.8,27.23,NW,315,6.3,6.3,79,0.00,,---,0.00,VWS V14.01,2013-02-09 12:47:00,
2013-02-09 05:52:00,39.4,34.0,27.23,NNE,22,5.8,5.8,81,0.00,,---,0.00,VWS V14.01,2013-02-09 12:52:00,
2013-02-09 05:58:00,39.0,34.3,27.26,WNW,292,2.7,4.0,83,0.00,,---,0.00,VWS V14.01,2013-02-09 12:58:00,
2013-02-09 06:03:00,39.0,34.9,27.26,WNW,292,3.6,4.0,85,0.00,,---,0.00,VWS V14.01,2013-02-09 13:03:00,
2013-02-09 06:08:00,38.8,35.3,27.26,ENE,68,11.9,11.9,87,0.00,,---,0.00,VWS V14.01,2013-02-09 13:08:00,
2013-02-09 06:13:00,38.8,35.9,27.26,WNW,292,10.1,10.1,89,0.00,,---,0.00,VWS V14.01,2013-02-09 13:13:00,
2013-02-09 06:18:00,38.7,36.3,27.26,WSW,248,7.6,10.5,91,0.00,,---,0.00,VWS V14.01,2013-02-09 13:18:00,
2013-02-09 06:23:00,37.8,35.7,27.26,WNW,292,11.0,11.0,92,0.00,,---,0.00,VWS V14.01,2013-02-09 13:23:00,
2013-02-09 06:28:00,37.2,35.1,27.28,WNW,292,6.7,6.7,92,0.00,,---,0.00,VWS V14.01,2013-02-09 13:28:00,
2013-02-09 06:33:00,36.9,34.8,27.28,WNW,292,11.0,11.0,92,0.00,,---,0.00,VWS V14.01,2013-02-09 13:33:00,
2013-02-09 06:38:00,37.0,35.2,27.28,West,270,2.7,5.4,93,0.00,,---,0.00,VWS V14.01,2013-02-09 13:38:00,
2013-02-09 06:43:00,37.0,35.2,27.28,WNW,292,0.0,3.6,93,0.05,,---,0.05,VWS V14.01,2013-02-09 13:43:00,
2013-02-09 06:48:00,37.2,35.4,27.28,WNW,292,2.2,5.8,93,0.05,,---,0.05,VWS V14.01,2013-02-09 13:48:00,
2013-02-09 06:53:00,37.4,35.6,27.28,NW,315,4.0,4.0,93,0.05,,---,0.05,VWS V14.01,2013-02-09 13:53:00,
2013-02-09 06:58:00,37.4,35.8,27.28,WNW,292,2.7,3.1,94,0.05,,---,0.05,VWS V14.01,2013-02-09 13:58:00,
2013-02-09 07:04:00,37.6,36.0,27.28,WNW,292,5.4,5.4,94,0.05,,---,0.05,VWS V14.01,2013-02-09 14:04:00,
2013-02-09 07:09:00,37.6,36.0,27.28,West,270,0.0,2.7,94,0.05,,---,0.05,VWS V14.01,2013-02-09 14:09:00,
2013-02-09 07:14:00,37.8,36.5,27.28,WSW,248,2.2,2.7,95,0.05,,---,0.05,VWS V14.01,2013-02-09 14:14:00,
2013-02-09 07:19:00,37.9,36.6,27.28,SW,225,2.2,2.7,95,0.05,,---,0.05,VWS V14.01,2013-02-09 14:19:00,
2013-02-09 07:24:00,38.1,36.8,27.28,WNW,292,2.2,2.2,95,0.05,,---,0.05,VWS V14.01,2013-02-09 14:24:00,
2013-02-09 07:29:00,38.3,37.0,27.28,WSW,248,2.7,5.4,95,0.05,,---,0.05,VWS V14.01,2013-02-09 14:29:00,
2013-02-09 07:34:00,38.5,37.4,27.28,West,270,5.4,5.8,96,0.05,,---,0.05,VWS V14.01,2013-02-09 14:34:00,
2013-02-09 07:39:00,38.5,37.4,27.28,West,270,2.7,3.6,96,0.05,,---,0.05,VWS V14.01,2013-02-09 14:39:00,
2013-02-09 07:44:00,38.5,37.4,27.28,West,270,2.2,3.1,96,0.00,,---,0.05,VWS V14.01,2013-02-09 14:44:00,
2013-02-09 07:49:00,38.5,37.2,27.28,WNW,292,2.2,4.9,95,0.00,,---,0.05,VWS V14.01,2013-02-09 14:49:00,
2013-02-09 07:54:00,38.7,37.3,27.28,NNW,338,3.6,6.3,95,0.00,,---,0.05,VWS V14.01,2013-02-09 14:54:00,
2013-02-09 07:59:00,38.8,37.3,27.28,North,0,4.0,4.9,94,0.00,,---,0.05,VWS V14.01,2013-02-09 14:59:00,
2013-02-09 08:04:00,38.8,37.0,27.28,WNW,292,3.1,3.6,93,0.00,,---,0.00,VWS V14.01,2013-02-09 15:04:00,
2013-02-09 08:09:00,38.7,36.3,27.28,WSW,248,3.1,4.0,91,0.00,,---,0.05,VWS V14.01,2013-02-09 15:09:00,
2013-02-09 08:15:00,38.8,35.9,27.31,WSW,248,0.0,0.0,89,0.00,,---,0.05,VWS V14.01,2013-02-09 15:15:00,
2013-02-09 08:20:00,38.7,35.1,27.31,South,180,2.7,2.7,87,0.00,,---,0.05,VWS V14.01,2013-02-09 15:20:00,
2013-02-09 08:25:00,38.8,35.0,27.31,ESE,112,2.7,2.7,86,0.00,,---,0.05,VWS V14.01,2013-02-09 15:25:00,
2013-02-09 08:30:00,38.8,34.7,27.28,ESE,112,2.2,3.1,85,0.00,,---,0.05,VWS V14.01,2013-02-09 15:30:00,
2013-02-09 08:35:00,39.0,34.9,27.28,ESE,112,0.0,0.0,85,0.00,,---,0.05,VWS V14.01,2013-02-09 15:35:00,
2013-02-09 08:40:00,38.8,34.4,27.28,ESE,112,0.0,0.0,84,0.00,,---,0.05,VWS V14.01,2013-02-09 15:40:00,
2013-02-09 08:45:00,38.8,34.1,27.31,WSW,248,3.6,3.6,83,0.00,,---,0.05,VWS V14.01,2013-02-09 15:45:00,
2013-02-09 08:50:00,39.0,33.4,27.31,West,270,6.7,6.7,80,0.00,,---,0.05,VWS V14.01,2013-02-09 15:50:00,
2013-02-09 08:55:00,39.2,32.6,27.31,West,270,2.7,4.0,77,0.00,,---,0.05,VWS V14.01,2013-02-09 15:55:00,
2013-02-09 09:00:00,39.6,32.0,27.34,SW,225,2.7,2.7,74,0.00,,---,0.05,VWS V14.01,2013-02-09 16:00:00,
2013-02-09 09:05:00,39.6,31.6,27.34,SW,225,4.9,4.9,73,0.00,,---,0.05,VWS V14.01,2013-02-09 16:05:00,
2013-02-09 09:10:00,39.7,31.8,27.34,SSW,202,5.4,8.1,73,0.00,,---,0.05,VWS V14.01,2013-02-09 16:10:00,
2013-02-09 09:15:00,39.7,31.1,27.34,SSW,202,2.7,5.8,71,0.00,,---,0.05,VWS V14.01,2013-02-09 16:15:00,
2013-02-09 09:20:00,39.9,30.9,27.34,SW,225,0.0,0.0,70,0.00,,---,0.05,VWS V14.01,2013-02-09 16:20:00,
2013-02-09 09:25:00,40.1,31.5,27.34,SSE,158,0.0,0.0,71,0.00,,---,0.05,VWS V14.01,2013-02-09 16:25:00,
2013-02-09 09:31:00,40.1,31.8,27.34,South,180,2.2,2.2,72,0.00,,---,0.05,VWS V14.01,2013-02-09 16:31:00,
2013-02-09 09:36:00,40.1,31.8,27.34,SSE,158,2.7,2.7,72,0.00,,---,0.05,VWS V14.01,2013-02-09 16:36:00,
2013-02-09 09:41:00,40.3,32.0,27.34,NNW,338,0.0,0.0,72,0.00,,---,0.05,VWS V14.01,2013-02-09 16:41:00,
2013-02-09 09:46:00,40.5,32.2,27.34,WSW,248,2.7,3.6,72,0.00,,---,0.05,VWS V14.01,2013-02-09 16:46:00,
2013-02-09 09:51:00,41.0,32.0,27.34,WSW,248,4.9,4.9,70,0.00,,---,0.05,VWS V14.01,2013-02-09 16:51:00,
2013-02-09 09:56:00,41.9,32.8,27.34,WSW,248,3.6,3.6,70,0.00,,---,0.05,VWS V14.01,2013-02-09 16:56:00,
2013-02-09 10:01:00,42.3,33.2,27.34,West,270,3.1,3.1,70,0.00,,---,0.05,VWS V14.01,2013-02-09 17:01:00,
2013-02-09 10:06:00,41.9,31.8,27.34,SSE,158,4.5,4.5,67,0.00,,---,0.05,VWS V14.01,2013-02-09 17:06:00,
2013-02-09 10:11:00,41.7,32.7,27.34,ESE,112,3.6,4.9,70,0.00,,---,0.05,VWS V14.01,2013-02-09 17:11:00,
2013-02-09 10:16:00,41.2,32.8,27.34,SSE,158,4.0,4.0,72,0.00,,---,0.05,VWS V14.01,2013-02-09 17:16:00,
2013-02-09 10:21:00,41.0,33.0,27.34,ESE,112,4.0,5.8,73,0.00,,---,0.05,VWS V14.01,2013-02-09 17:21:00,
2013-02-09 10:26:00,41.0,33.4,27.37,SE,135,2.7,4.0,74,0.00,,---,0.05,VWS V14.01,2013-02-09 17:26:00,
2013-02-09 10:31:00,42.3,34.9,27.37,SE,135,2.7,6.3,75,0.00,,---,0.05,VWS V14.01,2013-02-09 17:31:00,
2013-02-09 10:36:00,42.3,34.6,27.37,SSE,158,3.6,5.8,74,0.00,,---,0.05,VWS V14.01,2013-02-09 17:36:00,
2013-02-09 10:42:00,42.3,34.2,27.37,SE,135,3.6,3.6,73,0.00,,---,0.05,VWS V14.01,2013-02-09 17:42:00,
2013-02-09 10:47:00,42.3,33.5,27.37,SSW,202,3.6,3.6,71,0.00,,---,0.05,VWS V14.01,2013-02-09 17:47:00,
2013-02-09 10:52:00,43.3,34.2,27.37,SSW,202,3.1,4.9,70,0.00,,---,0.05,VWS V14.01,2013-02-09 17:52:00,
2013-02-09 10:57:00,44.8,31.8,27.37,SSW,202,3.6,5.4,60,0.00,,---,0.05,VWS V14.01,2013-02-09 17:57:00,
2013-02-09 11:02:00,46.6,31.7,27.37,South,180,4.0,4.0,56,0.00,,---,0.05,VWS V14.01,2013-02-09 18:02:00,
2013-02-09 11:07:00,46.8,31.0,27.37,SE,135,3.6,4.0,54,0.00,,---,0.05,VWS V14.01,2013-02-09 18:07:00,
2013-02-09 11:12:00,45.9,28.8,27.37,SSE,158,5.4,7.2,51,0.00,,---,0.05,VWS V14.01,2013-02-09 18:12:00,
2013-02-09 11:17:00,45.5,28.0,27.37,WNW,292,4.0,4.5,50,0.00,,---,0.05,VWS V14.01,2013-02-09 18:17:00,
2013-02-09 11:22:00,45.7,27.6,27.37,WSW,248,4.0,4.0,49,0.00,,---,0.05,VWS V14.01,2013-02-09 18:22:00,
2013-02-09 11:27:00,45.7,27.1,27.37,South,180,3.6,3.6,48,0.00,,---,0.05,VWS V14.01,2013-02-09 18:27:00,
2013-02-09 11:32:00,45.9,27.3,27.37,WNW,292,4.9,4.9,48,0.00,,---,0.05,VWS V14.01,2013-02-09 18:32:00,
2013-02-09 11:38:00,46.2,27.1,27.37,South,180,0.0,0.0,47,0.00,,---,0.05,VWS V14.01,2013-02-09 18:38:00,
2013-02-09 11:43:00,47.1,27.9,27.37,WSW,248,4.9,4.9,47,0.00,,---,0.05,VWS V14.01,2013-02-09 18:43:00,
2013-02-09 11:48:00,46.0,25.9,27.37,South,180,0.0,4.0,45,0.00,,---,0.05,VWS V14.01,2013-02-09 18:48:00,
2013-02-09 11:53:00,46.8,26.6,27.37,WNW,292,2.2,3.1,45,0.00,,---,0.05,VWS V14.01,2013-02-09 18:53:00,
2013-02-09 11:58:00,47.5,26.1,27.37,WSW,248,3.1,4.9,43,0.00,,---,0.05,VWS V14.01,2013-02-09 18:58:00,
2013-02-09 12:03:00,48.0,26.6,27.37,SSW,202,2.7,4.0,43,0.00,,---,0.05,VWS V14.01,2013-02-09 19:03:00,
2013-02-09 12:08:00,47.1,25.2,27.37,WNW,292,0.0,3.1,42,0.00,,---,0.05,VWS V14.01,2013-02-09 19:08:00,
2013-02-09 12:13:00,48.0,26.6,27.37,WSW,248,0.0,0.0,43,0.00,,---,0.05,VWS V14.01,2013-02-09 19:13:00,
2013-02-09 12:18:00,48.2,26.2,27.37,NNW,338,3.6,5.8,42,0.00,,---,0.05,VWS V14.01,2013-02-09 19:18:00,
2013-02-09 12:23:00,47.7,25.1,27.37,WNW,292,4.0,4.0,41,0.00,,---,0.05,VWS V14.01,2013-02-09 19:23:00,
2013-02-09 12:28:00,47.5,25.0,27.37,SSW,202,2.2,4.9,41,0.00,,---,0.05,VWS V14.01,2013-02-09 19:28:00,
2013-02-09 12:33:00,48.9,25.7,27.37,West,270,4.0,4.9,40,0.00,,---,0.05,VWS V14.01,2013-02-09 19:33:00,
2013-02-09 12:38:00,50.9,26.8,27.37,SSW,202,4.9,5.8,39,0.00,,---,0.05,VWS V14.01,2013-02-09 19:38:00,
2013-02-09 12:44:00,52.0,26.5,27.34,West,270,2.7,5.4,37,0.00,,---,0.05,VWS V14.01,2013-02-09 19:44:00,
2013-02-09 12:49:00,50.4,25.1,27.34,NNW,338,0.0,3.1,37,0.00,,---,0.05,VWS V14.01,2013-02-09 19:49:00,
2013-02-09 12:54:00,49.6,24.5,27.34,West,270,5.4,5.4,37,0.00,,---,0.05,VWS V14.01,2013-02-09 19:54:00,
2013-02-09 12:59:00,49.8,24.6,27.34,WNW,292,4.9,4.9,37,0.00,,---,0.05,VWS V14.01,2013-02-09 19:59:00,
2013-02-09 13:04:00,51.1,25.1,27.34,WSW,248,4.9,5.8,36,0.00,,---,0.05,VWS V14.01,2013-02-09 20:04:00,
2013-02-09 13:09:00,51.1,23.7,27.34,WNW,292,4.0,5.4,34,0.00,,---,0.05,VWS V14.01,2013-02-09 20:09:00,
2013-02-09 13:14:00,49.6,23.1,27.34,NW,315,3.1,7.6,35,0.00,,---,0.05,VWS V14.01,2013-02-09 20:14:00,
2013-02-09 13:19:00,50.2,22.9,27.34,WNW,292,4.0,5.4,34,0.00,,---,0.05,VWS V14.01,2013-02-09 20:19:00,
2013-02-09 13:24:00,50.2,22.9,27.34,WNW,292,3.1,7.6,34,0.00,,---,0.05,VWS V14.01,2013-02-09 20:24:00,
2013-02-09 13:29:00,50.4,23.1,27.34,NW,315,5.8,5.8,34,0.00,,---,0.05,VWS V14.01,2013-02-09 20:29:00,
2013-02-09 13:34:00,50.0,22.8,27.34,West,270,4.0,5.4,34,0.00,,---,0.05,VWS V14.01,2013-02-09 20:34:00,
2013-02-09 13:40:00,49.1,22.0,27.34,WNW,292,8.1,9.6,34,0.00,,---,0.05,VWS V14.01,2013-02-09 20:40:00,
2013-02-09 13:45:00,50.5,24.6,27.34,SSW,202,3.1,3.1,36,0.00,,---,0.05,VWS V14.01,2013-02-09 20:45:00,
2013-02-09 13:50:00,50.0,22.8,27.34,WSW,248,2.2,3.6,34,0.00,,---,0.05,VWS V14.01,2013-02-09 20:50:00,
2013-02-09 13:55:00,49.1,22.6,27.34,West,270,6.3,8.1,35,0.00,,---,0.05,VWS V14.01,2013-02-09 20:55:00,
2013-02-09 14:00:00,49.1,22.6,27.34,West,270,2.7,3.6,35,0.00,,---,0.05,VWS V14.01,2013-02-09 21:00:00,
2013-02-09 14:05:00,49.8,24.0,27.34,West,270,2.7,5.4,36,0.00,,---,0.05,VWS V14.01,2013-02-09 21:05:00,
2013-02-09 14:10:00,49.6,23.8,27.34,West,270,2.7,4.0,36,0.00,,---,0.05,VWS V14.01,2013-02-09 21:10:00,
2013-02-09 14:15:00,49.6,23.1,27.34,West,270,3.1,5.8,35,0.00,,---,0.05,VWS V14.01,2013-02-09 21:15:00,
2013-02-09 14:20:00,49.3,22.1,27.34,NW,315,6.3,6.3,34,0.00,,---,0.05,VWS V14.01,2013-02-09 21:20:00,
2013-02-09 14:25:00,49.6,21.7,27.34,WNW,292,4.9,4.9,33,0.00,,---,0.05,VWS V14.01,2013-02-09 21:25:00,
2013-02-09 14:30:00,49.8,21.9,27.34,WNW,292,4.0,6.3,33,0.00,,---,0.05,VWS V14.01,2013-02-09 21:30:00,
2013-02-09 14:35:00,50.2,21.5,27.34,WNW,292,4.0,4.0,32,0.00,,---,0.05,VWS V14.01,2013-02-09 21:35:00,
2013-02-09 14:40:00,50.4,20.9,27.34,West,270,6.3,10.5,31,0.00,,---,0.05,VWS V14.01,2013-02-09 21:40:00,
2013-02-09 14:45:00,50.5,20.3,27.34,WSW,248,5.4,7.2,30,0.00,,---,0.05,VWS V14.01,2013-02-09 21:45:00,
2013-02-09 14:50:00,50.2,20.0,27.34,WNW,292,4.9,6.3,30,0.00,,---,0.05,VWS V14.01,2013-02-09 21:50:00,
2013-02-09 14:55:00,50.2,20.0,27.34,WNW,292,3.6,4.0,30,0.00,,---,0.05,VWS V14.01,2013-02-09 21:55:00,
2013-02-09 15:01:00,50.2,20.0,27.34,WNW,292,3.6,3.6,30,0.00,,---,0.05,VWS V14.01,2013-02-09 22:01:00,
2013-02-09 15:06:00,50.2,19.2,27.34,WSW,248,5.8,5.8,29,0.00,,---,0.05,VWS V14.01,2013-02-09 22:06:00,
2013-02-09 15:11:00,50.0,19.0,27.34,WNW,292,6.3,6.3,29,0.00,,---,0.05,VWS V14.01,2013-02-09 22:11:00,
2013-02-09 15:16:00,52.3,20.2,27.34,West,270,10.5,10.5,28,0.00,,---,0.05,VWS V14.01,2013-02-09 22:16:00,
2013-02-09 15:21:00,51.6,19.6,27.34,WSW,248,7.2,8.1,28,0.00,,---,0.05,VWS V14.01,2013-02-09 22:21:00,
2013-02-09 15:26:00,51.1,19.1,27.34,WSW,248,3.1,7.2,28,0.00,,---,0.05,VWS V14.01,2013-02-09 22:26:00,
2013-02-09 15:31:00,53.1,20.8,27.34,WNW,292,8.3,12.3,28,0.00,,---,0.05,VWS V14.01,2013-02-09 22:31:00,
2013-02-09 15:36:00,52.9,19.8,27.34,West,270,5.4,7.6,27,0.00,,---,0.05,VWS V14.01,2013-02-09 22:36:00,
2013-02-09 15:41:00,53.6,19.6,27.34,WSW,248,8.1,8.1,26,0.00,,---,0.05,VWS V14.01,2013-02-09 22:41:00,
2013-02-09 15:46:00,54.3,20.2,27.34,NW,315,7.6,7.6,26,0.00,,---,0.05,VWS V14.01,2013-02-09 22:46:00,
2013-02-09 15:52:00,51.6,18.8,27.34,WNW,292,4.9,5.8,27,0.00,,---,0.05,VWS V14.01,2013-02-09 22:52:00,
2013-02-09 15:57:00,51.1,18.3,27.34,NW,315,4.9,6.3,27,0.00,,---,0.05,VWS V14.01,2013-02-09 22:57:00,
2013-02-09 16:02:00,50.7,18.0,27.34,SW,225,7.6,7.6,27,0.00,,---,0.05,VWS V14.01,2013-02-09 23:02:00,
2013-02-09 16:07:00,52.3,19.4,27.34,WNW,292,5.4,7.2,27,0.00,,---,0.05,VWS V14.01,2013-02-09 23:07:00,
2013-02-09 16:12:00,52.0,19.1,27.34,WNW,292,8.1,9.2,27,0.00,,---,0.05,VWS V14.01,2013-02-09 23:12:00,
2013-02-09 16:17:00,50.7,18.8,27.34,WNW,292,10.1,10.1,28,0.00,,---,0.05,VWS V14.01,2013-02-09 23:17:00,
2013-02-09 16:22:00,51.4,19.4,27.34,NNW,338,9.2,9.6,28,0.00,,---,0.05,VWS V14.01,2013-02-09 23:22:00,
2013-02-09 16:27:00,50.5,18.7,27.34,WNW,292,7.6,8.7,28,0.00,,---,0.05,VWS V14.01,2013-02-09 23:27:00,
2013-02-09 16:32:00,50.5,18.7,27.34,West,270,5.8,13.2,28,0.00,,---,0.05,VWS V14.01,2013-02-09 23:32:00,
2013-02-09 16:37:00,52.0,19.9,27.34,NNE,22,3.1,5.8,28,0.00,,---,0.05,VWS V14.01,2013-02-09 23:37:00,
2013-02-09 16:43:00,51.6,19.6,27.34,WSW,248,4.9,8.1,28,0.00,,---,0.05,VWS V14.01,2013-02-09 23:43:00,
2013-02-09 16:48:00,52.7,20.5,27.34,WNW,292,3.6,3.6,28,0.00,,---,0.05,VWS V14.01,2013-02-09 23:48:00,
2013-02-09 16:53:00,52.2,20.1,27.34,WNW,292,7.6,7.6,28,0.00,,---,0.05,VWS V14.01,2013-02-09 23:53:00,
2013-02-09 16:58:00,51.8,19.8,27.34,North,0,5.4,5.8,28,0.00,,---,0.05,VWS V14.01,2013-02-09 23:58:00,
2013-02-09 17:03:00,52.0,19.9,27.34,WNW,292,4.0,5.8,28,0.00,,---,0.05,VWS V14.01,2013-02-10 00:03:00,
2013-02-09 17:08:00,52.2,20.1,27.34,WNW,292,6.3,6.3,28,0.00,,---,0.05,VWS V14.01,2013-02-10 00:08:00,
2013-02-09 17:13:00,51.6,19.6,27.34,NW,315,4.9,6.3,28,0.00,,---,0.05,VWS V14.01,2013-02-10 00:13:00,
2013-02-09 17:18:00,51.1,19.1,27.34,WSW,248,4.9,8.1,28,0.00,,---,0.05,VWS V14.01,2013-02-10 00:18:00,
2013-02-09 17:23:00,50.4,17.7,27.34,WNW,292,4.0,6.3,27,0.00,,---,0.05,VWS V14.01,2013-02-10 00:23:00,
2013-02-09 17:28:00,50.5,18.7,27.34,WNW,292,7.6,7.6,28,0.00,,---,0.05,VWS V14.01,2013-02-10 00:28:00,
2013-02-09 17:33:00,50.2,18.4,27.34,WNW,292,3.1,4.0,28,0.00,,---,0.05,VWS V14.01,2013-02-10 00:33:00,
2013-02-09 17:38:00,50.0,18.2,27.34,WNW,292,4.0,4.0,28,0.00,,---,0.05,VWS V14.01,2013-02-10 00:38:00,
2013-02-09 17:43:00,50.2,18.4,27.34,West,270,3.1,5.4,28,0.00,,---,0.05,VWS V14.01,2013-02-10 00:43:00,
2013-02-09 17:49:00,50.0,18.2,27.34,NW,315,2.2,2.2,28,0.00,,---,0.05,VWS V14.01,2013-02-10 00:49:00,
2013-02-09 17:54:00,49.6,18.7,27.34,WNW,292,4.9,4.9,29,0.00,,---,0.05,VWS V14.01,2013-02-10 00:54:00,
2013-02-09 17:59:00,49.1,18.2,27.34,WNW,292,5.4,5.4,29,0.00,,---,0.05,VWS V14.01,2013-02-10 00:59:00,
2013-02-09 18:04:00,48.7,17.9,27.34,WNW,292,3.6,3.6,29,0.00,,---,0.05,VWS V14.01,2013-02-10 01:04:00,
2013-02-09 18:09:00,48.6,17.8,27.34,West,270,4.9,5.8,29,0.00,,---,0.05,VWS V14.01,2013-02-10 01:09:00,
2013-02-09 18:14:00,48.7,17.9,27.34,NW,315,5.4,7.6,29,0.00,,---,0.05,VWS V14.01,2013-02-10 01:14:00,
2013-02-09 18:19:00,48.6,17.8,27.34,West,270,4.9,4.9,29,0.00,,---,0.05,VWS V14.01,2013-02-10 01:19:00,
2013-02-09 18:24:00,48.4,17.6,27.34,West,270,5.4,5.4,29,0.00,,---,0.05,VWS V14.01,2013-02-10 01:24:00,
2013-02-09 18:29:00,48.4,17.6,27.37,West,270,7.2,10.1,29,0.00,,---,0.05,VWS V14.01,2013-02-10 01:29:00,
2013-02-09 18:34:00,48.4,17.6,27.37,WNW,292,3.1,3.1,29,0.00,,---,0.05,VWS V14.01,2013-02-10 01:34:00,
2013-02-09 18:40:00,48.2,17.5,27.37,WNW,292,4.0,4.0,29,0.00,,---,0.05,VWS V14.01,2013-02-10 01:40:00,
2013-02-09 18:45:00,47.8,17.1,27.37,North,0,3.1,3.1,29,0.00,,---,0.05,VWS V14.01,2013-02-10 01:45:00,
2013-02-09 18:50:00,47.5,17.6,27.37,WNW,292,0.0,2.7,30,0.00,,---,0.05,VWS V14.01,2013-02-10 01:50:00,
2013-02-09 18:55:00,47.1,17.3,27.37,WNW,292,0.0,0.0,30,0.00,,---,0.05,VWS V14.01,2013-02-10 01:55:00,
2013-02-09 19:00:00,47.3,17.5,27.37,West,270,4.9,5.4,30,0.00,,---,0.05,VWS V14.01,2013-02-10 02:00:00,
2013-02-09 19:05:00,47.5,17.6,27.37,West,270,0.0,3.6,30,0.00,,---,0.05,VWS V14.01,2013-02-10 02:05:00,
2013-02-09 19:10:00,47.3,18.2,27.37,WNW,292,3.1,4.0,31,0.00,,---,0.05,VWS V14.01,2013-02-10 02:10:00,
2013-02-09 19:15:00,46.9,17.9,27.37,WNW,292,0.0,3.6,31,0.00,,---,0.05,VWS V14.01,2013-02-10 02:15:00,
2013-02-09 19:20:00,47.1,18.1,27.37,West,270,3.1,3.6,31,0.00,,---,0.05,VWS V14.01,2013-02-10 02:20:00,
2013-02-09 19:25:00,47.1,18.1,27.37,West,270,0.0,2.7,31,0.00,,---,0.05,VWS V14.01,2013-02-10 02:25:00,
2013-02-09 19:31:00,46.9,17.9,27.37,West,270,4.9,4.9,31,0.00,,---,0.05,VWS V14.01,2013-02-10 02:31:00,
2013-02-09 19:36:00,46.8,18.5,27.37,West,270,2.2,2.2,32,0.00,,---,0.05,VWS V14.01,2013-02-10 02:36:00,
2013-02-09 19:41:00,46.6,18.3,27.37,WNW,292,2.2,2.2,32,0.00,,---,0.05,VWS V14.01,2013-02-10 02:41:00,
2013-02-09 19:46:00,46.6,18.3,27.37,WNW,292,3.6,3.6,32,0.00,,---,0.05,VWS V14.01,2013-02-10 02:46:00,
2013-02-09 19:51:00,46.0,18.6,27.37,WNW,292,0.0,0.0,33,0.00,,---,0.05,VWS V14.01,2013-02-10 02:51:00,
2013-02-09 19:56:00,45.5,18.8,27.37,West,270,0.0,0.0,34,0.00,,---,0.05,VWS V14.01,2013-02-10 02:56:00,
2013-02-09 20:01:00,45.1,19.1,27.37,WNW,292,0.0,0.0,35,0.00,,---,0.05,VWS V14.01,2013-02-10 03:01:00,
2013-02-09 20:06:00,44.2,20.3,27.37,WNW,292,0.0,0.0,38,0.00,,---,0.05,VWS V14.01,2013-02-10 03:06:00,
2013-02-09 20:11:00,43.7,19.8,27.37,West,270,0.0,0.0,38,0.00,,---,0.05,VWS V14.01,2013-02-10 03:11:00,
2013-02-09 20:16:00,43.3,20.1,27.37,West,270,0.0,0.0,39,0.00,,---,0.05,VWS V14.01,2013-02-10 03:16:00,
2013-02-09 20:21:00,43.0,19.7,27.37,West,270,0.0,0.0,39,0.00,,---,0.05,VWS V14.01,2013-02-10 03:21:00,
2013-02-09 20:27:00,42.1,20.1,27.37,West,270,0.0,0.0,41,0.00,,---,0.05,VWS V14.01,2013-02-10 03:27:00,
2013-02-09 20:32:00,41.0,19.1,27.37,West,270,0.0,0.0,41,0.00,,---,0.05,VWS V14.01,2013-02-10 03:32:00,
2013-02-09 20:37:00,40.6,19.9,27.37,West,270,0.0,0.0,43,0.00,,---,0.05,VWS V14.01,2013-02-10 03:37:00,
2013-02-09 20:42:00,40.5,20.8,27.40,West,270,0.0,0.0,45,0.00,,---,0.05,VWS V14.01,2013-02-10 03:42:00,
2013-02-09 20:47:00,39.4,19.8,27.40,West,270,0.0,0.0,45,0.00,,---,0.05,VWS V14.01,2013-02-10 03:47:00,
2013-02-09 20:52:00,39.4,21.8,27.40,West,270,0.0,0.0,49,0.00,,---,0.05,VWS V14.01,2013-02-10 03:52:00,
2013-02-09 20:57:00,38.8,21.8,27.40,West,270,0.0,0.0,50,0.00,,---,0.05,VWS V14.01,2013-02-10 03:57:00,
2013-02-09 21:02:00,38.7,22.1,27.40,West,270,0.0,0.0,51,0.00,,---,0.05,VWS V14.01,2013-02-10 04:02:00,
2013-02-09 21:07:00,38.5,22.4,27.40,West,270,0.0,0.0,52,0.00,,---,0.05,VWS V14.01,2013-02-10 04:07:00,
2013-02-09 21:12:00,38.1,22.5,27.40,West,270,0.0,0.0,53,0.00,,---,0.05,VWS V14.01,2013-02-10 04:12:00,
2013-02-09 21:17:00,38.1,23.0,27.40,West,270,0.0,0.0,54,0.00,,---,0.05,VWS V14.01,2013-02-10 04:17:00,
2013-02-09 21:22:00,37.9,22.8,27.40,West,270,0.0,0.0,54,0.00,,---,0.05,VWS V14.01,2013-02-10 04:22:00,
2013-02-09 21:28:00,38.1,23.4,27.40,West,270,0.0,0.0,55,0.00,,---,0.05,VWS V14.01,2013-02-10 04:28:00,
2013-02-09 21:33:00,39.0,23.8,27.40,NNW,338,0.0,0.0,54,0.00,,---,0.05,VWS V14.01,2013-02-10 04:33:00,
2013-02-09 21:38:00,39.2,23.1,27.40,NW,315,0.0,0.0,52,0.00,,---,0.05,VWS V14.01,2013-02-10 04:38:00,
2013-02-09 21:43:00,39.4,23.2,27.40,West,270,0.0,0.0,52,0.00,,---,0.05,VWS V14.01,2013-02-10 04:43:00,
2013-02-09 21:48:00,39.7,23.6,27.40,WSW,248,0.0,0.0,52,0.00,,---,0.05,VWS V14.01,2013-02-10 04:48:00,
2013-02-09 21:53:00,39.7,23.6,27.40,WSW,248,0.0,0.0,52,0.00,,---,0.05,VWS V14.01,2013-02-10 04:53:00,
2013-02-09 21:58:00,39.2,22.6,27.40,WSW,248,0.0,0.0,51,0.00,,---,0.05,VWS V14.01,2013-02-10 04:58:00,
2013-02-09 22:00:00,39.0,22.4,27.40,WSW,248,0.0,0.0,51,0.00,,---,0.05,VWS V14.01,2013-02-10 05:00:00,
2013-02-09 22:02:00,39.0,22.4,27.40,WSW,248,0.0,0.0,51,0.00,,---,0.05,VWS V14.01,2013-02-10 05:02:00,
2013-02-09 22:07:00,39.0,22.9,27.40,WSW,248,0.0,0.0,52,0.00,,---,0.05,VWS V14.01,2013-02-10 05:07:00,
2013-02-09 22:12:00,38.7,23.0,27.40,WSW,248,0.0,0.0,53,0.00,,---,0.05,VWS V14.01,2013-02-10 05:12:00,
2013-02-09 22:17:00,39.2,23.5,27.40,WSW,248,0.0,0.0,53,0.00,,---,0.05,VWS V14.01,2013-02-10 05:17:00,
2013-02-09 22:22:00,38.8,23.6,27.40,WSW,248,0.0,0.0,54,0.00,,---,0.05,VWS V14.01,2013-02-10 05:22:00,
2013-02-09 22:27:00,39.2,23.1,27.40,WSW,248,0.0,0.0,52,0.00,,---,0.05,VWS V14.01,2013-02-10 05:27:00,
2013-02-09 22:32:00,39.0,22.9,27.40,WSW,248,0.0,0.0,52,0.00,,---,0.05,VWS V14.01,2013-02-10 05:32:00,
2013-02-09 22:37:00,38.5,21.9,27.40,WSW,248,0.0,0.0,51,0.00,,---,0.05,VWS V14.01,2013-02-10 05:37:00,
2013-02-09 22:43:00,37.9,21.9,27.40,WSW,248,0.0,0.0,52,0.00,,---,0.05,VWS V14.01,2013-02-10 05:43:00,
2013-02-09 22:48:00,37.4,21.9,27.40,WSW,248,0.0,0.0,53,0.00,,---,0.05,VWS V14.01,2013-02-10 05:48:00,
2013-02-09 22:53:00,37.2,22.6,27.40,WSW,248,0.0,0.0,55,0.00,,---,0.05,VWS V14.01,2013-02-10 05:53:00,
2013-02-09 22:58:00,36.9,22.6,27.40,WSW,248,0.0,0.0,56,0.00,,---,0.05,VWS V14.01,2013-02-10 05:58:00,
2013-02-09 23:03:00,36.5,22.7,27.40,WSW,248,0.0,0.0,57,0.00,,---,0.05,VWS V14.01,2013-02-10 06:03:00,
2013-02-09 23:08:00,36.1,22.8,27.40,WSW,248,0.0,0.0,58,0.00,,---,0.05,VWS V14.01,2013-02-10 06:08:00,
2013-02-09 23:13:00,36.1,24.0,27.40,WSW,248,0.0,0.0,61,0.00,,---,0.05,VWS V14.01,2013-02-10 06:13:00,
2013-02-09 23:18:00,36.1,24.4,27.40,WSW,248,0.0,0.0,62,0.00,,---,0.05,VWS V14.01,2013-02-10 06:18:00,
2013-02-09 23:23:00,35.8,24.8,27.40,WSW,248,0.0,0.0,64,0.00,,---,0.05,VWS V14.01,2013-02-10 06:23:00,
2013-02-09 23:28:00,35.8,25.2,27.40,WSW,248,0.0,0.0,65,0.00,,---,0.05,VWS V14.01,2013-02-10 06:28:00,
2013-02-09 23:33:00,36.0,25.7,27.40,WSW,248,0.0,0.0,66,0.00,,---,0.05,VWS V14.01,2013-02-10 06:33:00,
2013-02-09 23:38:00,35.6,25.4,27.40,WNW,292,0.0,0.0,66,0.00,,---,0.05,VWS V14.01,2013-02-10 06:38:00,
2013-02-09 23:43:00,35.8,25.5,27.43,ESE,112,0.0,0.0,66,0.00,,---,0.05,VWS V14.01,2013-02-10 06:43:00,
2013-02-09 23:48:00,35.4,25.6,27.43,SE,135,0.0,0.0,67,0.00,,---,0.05,VWS V14.01,2013-02-10 06:48:00,
2013-02-09 23:53:00,35.4,25.6,27.43,SE,135,0.0,0.0,67,0.00,,---,0.05,VWS V14.01,2013-02-10 06:53:00,
2013-02-09 23:59:00,35.6,25.4,27.43,SE,135,0.0,0.0,66,0.00,,---,0.05,VWS V14.01,2013-02-10 06:59:00,